Location: Suzhou
(31.3110°N, 120.6180°E)
Time: 12:44:47
(UTC+08:00)

FO-29 - Pass Details

Date: 20 April 2026
Orbit: 800 x 1320 km, 98.5° (Epoch: 15 May)

Event Time Altitude Azimuth Distance (km) Brightness Sun altitude
Rises 18:41:43 0° 32° (NNE) 4,100 12.6 -3.4°
Reaches altitude 10° 18:45:30 10° 50° (NE) 3,039 11.8 -4.2°
Maximum altitude 18:49:55 18° 90° (E) 2,381 11.0 -5.1°
Drops below altitude 10° 18:54:01 10° 131° (SE) 2,792 11.3 -5.9°
Sets 18:57:16 0° 150° (SSE) 3,641 12.0 -6.6°
